Погода в Салониках

Греция     40˚37′56″N   22˚56′08″E
темп.,
°C
ветер,
м/с
пор.,
м/с
влажн.,
%
обл.,
%
осадки,
мм/ч
давл.,
гПа
погр.,
м
5 декабря, сб
сб523:00+9˚всв229255 0.5 101538
02:00+10˚всв229063 1.2 101569
05:00+9˚всв229158 0.1 101533
08:00+9˚всв229165 0.3 101647
11:00+14˚вюв257789 0.0 1017612
14:00+15˚вюв456887 0.1 1016859
17:00+13˚вюв358152 0.1 1016226
20:00+11˚в238941 0.1 101877
6 декабря, вс
вс623:00+10˚в229011 0.0 101950
02:00+10˚в238924 0.0 101875
05:00+10˚в239239 0.0 101856
08:00+9˚в369028 0.0 1018156
11:00+14˚вюв697044 0.0 1017652
14:00+14˚вюв696743 0.0 1015799
17:00+12˚вюв6117938 0.0 1015503
20:00+11˚в6128436 0.0 1015522
7 декабря, пн
пн723:00+11˚в8138130 0.0 1014571
02:00+10˚в7148138 0.0 1013527
05:00+10˚в8148070 0.0 1010606
08:00+10˚в9158284 0.0 1009641
11:00+10˚в8158197 1.4 1008631
14:00+11˚в5128098 2.7 1006713
17:00+9˚сз4892100 8.8 1008316
20:00+9˚ссв3688100 18.3 1009330
8 декабря, вт
вт823:00+9˚ссв118584 0.3 101122
02:00+8˚сз118642 0.3 101222
05:00+7˚ссз11890 0.0 101222
08:00+7˚ссз11870 0.0 101422
11:00+11˚сз11670 0.0 1014242
14:00+13˚з00540 0.0 1013417
17:00+11˚ю0060100 0.0 101422
20:00+10˚в2266100 0.0 101548
9 декабря, ср
ср923:00+9˚всв2378100 0.0 101676
02:00+8˚в2383100 0.0 101671
05:00+9˚в3584100 0.0 1015218
08:00+8˚в388489 0.0 1013244
11:00+13˚вюв7117629 0.0 1012957
14:00+15˚юв7126565 0.0 10091090
17:00+12˚ююв1289100 2.4 100984
20:00+11˚ююв129182 2.8 101036